Temp
20 17 17 19 18 19 19 17 18 18 17 16 15 17 15 14 14 14 14 15 15 15 16 15 15 15 14 14 13 12 12 12 11 11 10 10 10 9 9 9 9 9 9 9
17 17 18 20 19 19 19 17 17 18 18 17 15 16 16 13 14 15 15 15 15 15 16 15 15 15 14 14 14 13 12 13 12 11 11 10 10 9 9 9 9 9 9 8
17 19 19 20 19 19 19 17 18 19 17 18 17 17 15 15 15 15 15 16 16 16 16 16 16 16 15 14 14 13 13 13 12 11 10 9 9 9 9 9 8 8 8 8
18 19 19 19 19 18 19 19 20 19 17 17 18 16 17 16 15 15 15 15 15 17 17 17 16 16 16 15 14 14 13 13 12 11 10 10 10 10 9 9 9 8 8 8
17 19 18 18 19 19 19 19 19 19 16 17 17 15 17 16 17 15 16 14 15 17 17 18 18 17 16 15 14 14 13 13 12 11 10 10 9 9 9 9 8 8 8 7
17 19 19 19 19 19 19 18 14 13 13 15 17 15 15 16 16 15 14 15 16 17 17 18 17 17 16 15 14 14 13 13 12 11 10 10 9 9 9 9 8 8 7 7
17 18 18 20 19 18 16 14 12 14 12 13 16 14 15 14 13 13 14 14 15 15 16 17 17 17 16 16 15 14 13 13 12 11 10 10 9 9 9 9 8 8 7 6
14 14 17 18 18 17 16 15 11 15 13 14 15 14 15 13 12 12 13 14 16 17 17 17 17 17 16 16 15 14 14 13 12 11 10 10 9 9 9 9 8 7 6 6
13 14 16 17 17 17 16 14 14 12 11 12 13 14 14 13 12 11 11 13 14 16 17 16 16 15 15 15 14 14 14 13 12 11 10 10 9 9 9 8 8 7 6 4
15 15 17 17 17 16 16 14 13 8 12 14 12 14 14 13 12 11 10 10 12 13 14 15 15 15 14 14 13 13 13 12 11 10 10 9 9 9 9 9 8 6 5 4
13 13 15 17 15 14 14 14 11 11 10 11 12 13 12 13 11 10 10 10 11 11 12 13 14 14 14 13 12 12 12 12 11 10 10 9 9 9 8 7 6 5 4 3
14 11 12 15 15 15 15 14 12 9 13 9 10 12 10 10 11 12 10 11 11 12 12 13 13 14 14 12 11 11 11 11 10 10 9 9 8 8 7 6 5 3 4 3
12 11 9 13 13 13 15 14 10 9 9 10 10 12 10 10 9 11 11 10 10 11 12 12 13 13 12 11 10 10 9 10 9 9 9 8 7 6 6 5 4 4 3 1
15 10 12 13 13 11 14 13 10 11 7 10 10 13 13 9 8 8 9 10 9 10 11 11 11 10 9 9 8 8 8 8 8 8 7 7 6 5 4 4 3 2 1 0
12 12 11 11 14 12 14 13 10 11 11 12 14 11 13 11 9 8 9 9 9 9 9 9 9 9 8 7 7 7 7 7 6 7 6 6 5 4 4 3 2 1 -0 -1
8 12 12 14 13 12 14 13 11 11 11 12 13 11 11 11 10 8 8 8 8 8 8 8 7 7 6 7 7 6 6 6 5 6 5 5 5 4 3 2 1 -0 -1 -2
9 9 9 12 13 13 10 12 11 11 11 12 12 12 9 8 8 8 8 8 8 8 8 8 8 7 6 6 6 6 5 5 5 5 5 4 3 2 2 1 -0 -1 -2 -3
10 9 5 7 11 9 13 13 13 13 12 11 13 11 11 12 13 11 10 9 8 8 8 7 7 6 6 6 5 5 5 5 5 4 4 4 3 2 1 0 -1 -2 -3 -4
10 7 7 7 9 11 14 14 13 13 13 11 13 11 11 10 10 8 10 10 11 10 8 8 7 6 6 5 5 5 5 4 4 4 4 3 2 1 0 -1 -2 -3 -4 -5
9 9 8 5 9 10 11 14 15 14 12 14 13 9 7 10 8 8 9 9 10 9 9 7 6 6 5 5 5 5 4 4 4 4 3 2 1 -0 -1 -2 -3 -5 -5 -6
7 6 7 4 7 9 10 14 15 13 11 15 14 11 9 9 12 14 10 9 10 10 8 7 6 6 5 5 4 4 4 3 3 2 1 1 -0 -1 -2 -3 -4 -5 -6 -7
9 7 5 4 5 9 14 13 14 13 15 16 15 15 11 11 12 13 10 9 9 8 7 6 6 5 4 4 3 3 3 2 2 1 1 0 -1 -2 -3 -5 -5 -6 -7 -8
8 8 8 8 8 12 14 15 17 17 17 17 17 15 13 11 11 10 9 9 9 8 7 6 6 5 4 3 3 3 3 2 2 1 1 -1 -2 -3 -4 -5 -6 -7 -7 -8
9 8 7 9 11 10 14 14 14 16 17 18 18 17 14 12 11 9 9 8 8 7 6 6 5 4 4 2 2 2 2 2 1 1 -0 -1 -2 -3 -4 -6 -6 -7 -8 -8
6 7 6 7 10 12 13 14 13 13 15 16 17 16 15 12 11 11 9 8 8 7 6 5 5 4 3 2 2 1 1 1 1 -0 -1 -2 -2 -3 -5 -6 -7 -7 -8 -9
6 7 6 6 8 7 9 11 11 14 14 15 17 15 13 13 13 11 9 9 8 7 6 5 4 4 3 2 1 1 1 1 0 -1 -1 -2 -3 -4 -5 -6 -7 -8 -8 -9
Height
1522 1530 1535 1529 1528 1528 1532 1538 1538 1529 1528 1534 1533 1530 1531 1533 1537 1538 1538 1539 1543 1547 1552 1556 1560 1563 1567 1571 1573 1575 1577 1579 1581 1583 1585 1588 1590 1593 1595 1596 1597 1598 1599 1599
1526 1533 1524 1524 1525 1528 1530 1536 1536 1526 1524 1530 1534 1532 1529 1530 1528 1528 1531 1535 1538 1545 1550 1553 1556 1560 1564 1568 1571 1574 1577 1579 1581 1583 1586 1588 1591 1593 1595 1596 1597 1598 1598 1598
1527 1522 1521 1522 1525 1529 1529 1533 1530 1529 1527 1528 1530 1531 1529 1525 1525 1527 1529 1530 1534 1538 1544 1548 1551 1554 1560 1563 1568 1572 1576 1578 1580 1583 1585 1588 1590 1592 1594 1596 1596 1597 1598 1598
1521 1517 1519 1522 1526 1527 1532 1520 1521 1525 1534 1542 1529 1551 1528 1523 1523 1522 1521 1522 1526 1532 1539 1544 1547 1550 1555 1560 1566 1571 1575 1577 1580 1582 1584 1586 1588 1591 1594 1595 1596 1597 1597 1596
1523 1518 1520 1523 1521 1520 1526 1519 1522 1525 1535 1535 1536 1549 1530 1522 1519 1517 1516 1517 1522 1528 1532 1537 1541 1545 1551 1557 1562 1568 1573 1576 1578 1580 1583 1586 1588 1591 1593 1594 1595 1595 1595 1595
1516 1514 1515 1515 1515 1516 1517 1522 1531 1537 1544 1554 1532 1542 1538 1527 1521 1515 1513 1514 1519 1523 1528 1535 1540 1544 1548 1554 1559 1565 1569 1573 1577 1579 1582 1585 1588 1590 1592 1593 1594 1594 1594 1594
1519 1516 1513 1513 1516 1517 1521 1535 1564 1559 1568 1563 1534 1544 1531 1522 1520 1517 1515 1515 1518 1521 1527 1531 1535 1538 1542 1547 1554 1561 1566 1570 1575 1578 1581 1583 1587 1589 1591 1592 1592 1593 1593 1592
1532 1537 1515 1510 1514 1522 1525 1532 1562 1558 1566 1555 1538 1545 1527 1522 1521 1518 1516 1517 1519 1521 1524 1528 1531 1533 1537 1543 1549 1556 1561 1567 1572 1576 1579 1582 1585 1588 1589 1590 1590 1591 1590 1588
1532 1529 1510 1508 1509 1513 1525 1535 1529 1548 1556 1557 1545 1532 1522 1520 1520 1521 1520 1520 1519 1519 1520 1523 1527 1531 1535 1539 1545 1552 1558 1564 1569 1574 1577 1579 1582 1585 1586 1587 1587 1587 1586 1585
1513 1525 1511 1508 1509 1513 1516 1520 1543 1557 1561 1555 1550 1541 1531 1523 1522 1524 1524 1523 1521 1521 1521 1523 1526 1529 1533 1538 1543 1548 1555 1561 1566 1570 1573 1576 1579 1582 1583 1584 1584 1584 1585 1585
1508 1519 1518 1511 1514 1518 1522 1525 1534 1539 1550 1557 1555 1543 1517 1516 1518 1522 1523 1523 1523 1523 1525 1525 1527 1529 1532 1535 1540 1545 1552 1557 1562 1566 1570 1573 1576 1579 1580 1581 1582 1584 1583 1584
1504 1515 1526 1516 1509 1509 1510 1515 1522 1548 1543 1551 1551 1539 1515 1514 1513 1515 1520 1522 1523 1524 1525 1525 1527 1529 1531 1534 1538 1542 1548 1553 1559 1563 1566 1570 1573 1576 1578 1579 1580 1582 1583 1581
1500 1518 1537 1521 1518 1512 1510 1513 1520 1528 1535 1544 1553 1534 1512 1511 1512 1514 1517 1521 1523 1524 1524 1525 1527 1529 1531 1533 1536 1541 1546 1551 1556 1560 1564 1568 1571 1574 1577 1579 1580 1579 1579 1578
1496 1506 1509 1516 1513 1513 1512 1512 1519 1521 1545 1537 1534 1518 1509 1514 1514 1514 1516 1518 1521 1523 1524 1526 1528 1529 1532 1533 1537 1541 1544 1550 1554 1559 1563 1567 1570 1573 1575 1577 1576 1576 1576 1575
1499 1505 1504 1501 1497 1502 1501 1505 1515 1517 1515 1523 1512 1518 1506 1502 1505 1508 1512 1517 1519 1522 1524 1526 1528 1529 1533 1534 1537 1542 1545 1550 1555 1559 1563 1566 1569 1571 1573 1573 1574 1574 1573 1572
1501 1503 1499 1498 1496 1500 1499 1499 1506 1507 1510 1510 1508 1511 1497 1497 1500 1509 1511 1514 1517 1520 1524 1526 1528 1530 1534 1536 1539 1544 1547 1552 1558 1561 1564 1566 1568 1569 1570 1571 1571 1571 1570 1569
1508 1511 1509 1504 1495 1499 1513 1499 1500 1501 1499 1500 1511 1496 1494 1497 1497 1499 1503 1508 1512 1517 1521 1524 1527 1530 1534 1537 1541 1546 1550 1555 1558 1562 1563 1565 1567 1568 1570 1569 1569 1569 1569 1568
1505 1510 1522 1518 1505 1523 1489 1482 1483 1489 1488 1490 1488 1487 1485 1486 1487 1492 1497 1501 1508 1513 1518 1522 1525 1530 1535 1539 1544 1548 1552 1556 1558 1561 1563 1565 1566 1567 1567 1567 1567 1567 1567 1565
1499 1509 1519 1523 1514 1498 1482 1481 1484 1486 1484 1480 1480 1483 1485 1487 1490 1492 1494 1499 1505 1510 1516 1521 1526 1531 1535 1540 1545 1548 1552 1555 1558 1560 1562 1563 1564 1565 1565 1564 1564 1564 1564 1563
1494 1498 1509 1523 1511 1508 1486 1471 1472 1474 1491 1469 1471 1475 1480 1485 1496 1482 1486 1494 1502 1509 1514 1520 1526 1531 1536 1540 1544 1548 1551 1555 1556 1558 1560 1561 1562 1563 1563 1563 1562 1563 1562 1561
1498 1505 1507 1519 1511 1494 1474 1470 1472 1490 1490 1465 1466 1469 1475 1478 1473 1474 1480 1490 1500 1506 1512 1520 1525 1530 1535 1539 1544 1547 1551 1554 1556 1558 1559 1560 1561 1562 1562 1561 1561 1561 1561 1559
1490 1498 1508 1511 1513 1501 1467 1471 1475 1467 1461 1463 1464 1465 1470 1472 1473 1474 1478 1485 1493 1500 1508 1517 1523 1529 1534 1539 1543 1547 1550 1552 1554 1556 1558 1559 1560 1560 1561 1561 1561 1560 1559 1558
1492 1487 1487 1486 1481 1464 1461 1459 1458 1459 1461 1461 1461 1463 1466 1471 1472 1474 1478 1484 1491 1499 1506 1514 1520 1526 1532 1537 1542 1545 1547 1550 1552 1554 1556 1557 1558 1558 1559 1560 1560 1560 1559 1558
1482 1481 1484 1475 1463 1462 1460 1460 1461 1458 1458 1459 1460 1461 1463 1466 1471 1474 1478 1483 1489 1497 1503 1511 1518 1523 1529 1535 1539 1544 1546 1547 1550 1551 1553 1555 1556 1556 1557 1558 1558 1558 1558 1556
1492 1485 1486 1478 1465 1458 1460 1459 1459 1456 1456 1457 1458 1459 1460 1464 1469 1472 1475 1480 1486 1493 1502 1509 1515 1521 1526 1531 1537 1541 1543 1545 1547 1549 1550 1551 1553 1554 1555 1556 1556 1555 1556 1555
1486 1480 1486 1481 1475 1470 1463 1462 1457 1453 1452 1453 1454 1456 1457 1461 1465 1470 1474 1478 1482 1490 1499 1507 1514 1520 1525 1530 1534 1538 1541 1544 1545 1547 1547 1548 1549 1550 1551 1553 1553 1553 1553 1553
Wind_Speed
2 4 5 8 7 1 3 4 6 6 7 6 11 14 8 16 19 18 25 30 30 30 26 24 24 25 26 23 18 15 14 16 18 19 18 16 13 11 8 5 2 1 1 2
5 5 6 2 3 4 3 3 7 6 4 8 6 12 6 14 21 32 31 31 33 31 28 28 27 27 30 26 21 17 14 15 17 16 16 14 12 10 8 5 2 1 2 4
6 5 4 3 3 4 3 4 3 6 3 1 3 4 4 7 18 20 25 33 33 33 32 31 30 31 32 30 25 19 14 13 15 16 17 15 14 12 11 7 3 2 4 5
4 3 5 3 5 6 4 5 1 3 4 3 3 4 4 3 6 12 24 32 34 35 34 31 31 32 35 33 27 21 16 14 14 16 18 16 15 12 8 5 5 6 7 7
8 3 4 5 6 6 7 3 2 2 2 2 1 3 6 4 5 6 18 27 31 35 36 34 33 31 35 34 30 25 20 16 15 15 16 16 16 11 8 9 9 10 10 9
7 2 4 5 2 2 4 4 7 5 3 1 7 5 6 3 4 6 3 17 28 33 35 33 33 33 35 34 33 29 24 19 16 14 15 15 15 12 10 13 14 14 12 11
3 3 3 2 3 2 5 6 2 3 3 6 1 3 8 5 6 5 5 10 17 22 27 30 32 34 36 37 35 32 27 23 18 14 14 15 16 12 12 11 13 15 13 13
6 6 6 3 6 7 5 7 5 5 3 4 3 5 5 3 2 4 5 4 8 14 20 24 29 32 33 33 35 34 30 26 21 15 14 15 16 13 12 11 15 13 14 16
5 5 3 3 3 8 4 3 4 6 2 1 3 5 5 3 2 6 5 6 6 6 11 17 21 23 26 28 30 33 32 27 22 18 17 16 17 14 11 13 14 15 19 15
6 1 2 1 4 4 6 6 3 3 3 4 4 4 5 6 6 2 2 6 9 8 7 8 10 12 13 15 21 30 31 28 24 22 21 18 17 17 17 15 17 18 16 14
5 4 4 2 4 8 2 2 5 4 4 4 1 5 5 5 9 9 9 7 8 9 9 8 7 7 9 12 16 26 30 28 27 24 22 21 17 17 17 17 16 14 12 10
6 5 5 8 2 2 3 6 6 5 4 1 3 6 1 7 13 22 15 12 10 8 8 8 6 5 8 12 17 23 28 28 25 23 22 20 18 17 16 15 13 8 11 14
8 2 1 7 5 4 3 3 4 5 3 6 5 6 3 5 11 22 23 17 13 10 9 7 6 7 11 15 18 22 24 25 24 23 21 19 19 17 15 11 9 11 11 10
6 3 8 10 7 5 5 5 4 6 4 5 6 7 4 6 8 17 21 18 15 12 10 9 9 10 12 16 19 21 24 24 25 24 21 20 18 14 10 6 7 8 10 12
2 6 5 6 7 7 8 7 9 7 6 7 6 8 8 9 15 22 25 21 18 16 14 12 12 14 16 20 22 24 26 28 26 24 20 17 13 8 5 5 6 8 9 9
6 4 4 4 4 7 4 5 9 4 3 6 3 7 8 3 19 23 28 26 23 20 18 17 17 17 20 22 25 29 29 27 23 19 16 12 7 5 3 5 7 7 7 8
4 4 1 4 2 3 5 7 8 5 5 7 7 11 7 5 14 29 35 34 30 25 23 21 21 21 24 26 28 28 26 23 20 15 12 8 5 3 4 5 6 6 6 7
1 3 3 2 3 3 6 1 7 9 7 10 4 6 15 12 21 24 34 37 31 28 27 25 26 28 28 28 27 25 23 19 16 12 9 6 4 3 4 5 5 5 6 6
8 4 2 2 4 5 3 5 8 8 10 10 14 6 11 10 12 8 29 32 30 29 27 26 27 28 29 27 25 22 20 16 14 11 7 4 3 4 4 4 4 5 5 7
7 3 4 2 3 7 8 4 9 6 5 7 17 11 15 19 4 6 32 32 31 29 27 29 30 30 28 26 23 20 18 15 12 8 6 4 2 3 3 3 3 4 7 8
5 2 7 3 4 7 7 5 8 5 8 4 14 19 26 8 11 8 31 34 30 29 30 31 31 30 27 25 22 19 16 14 11 8 4 2 3 3 3 2 3 5 7 7
8 7 4 2 3 7 6 3 7 8 5 5 9 19 30 17 10 16 34 38 36 35 35 34 33 31 27 25 22 19 16 13 10 6 3 3 3 3 3 3 4 5 6 6
4 3 4 9 7 7 10 7 16 5 6 7 11 16 24 22 19 27 37 39 37 36 37 35 33 31 28 24 20 17 15 12 8 5 4 4 4 3 3 3 5 7 7 7
5 8 4 1 4 8 13 9 9 8 9 7 8 13 19 27 25 31 37 39 39 39 39 37 35 32 30 25 21 14 14 11 8 6 5 4 4 4 4 6 7 9 9 9
5 8 7 11 6 17 11 3 8 10 10 12 13 16 20 25 27 31 37 40 40 40 39 37 35 32 29 27 23 18 15 11 9 7 6 5 5 5 6 7 9 9 9 10
6 3 4 4 4 5 14 25 19 13 15 15 17 20 23 26 29 34 37 40 41 41 40 39 35 31 29 26 22 18 14 11 9 9 7 6 6 6 7 8 10 9 10 11
Wind_Direction
133 99 216 225 210 108 196 204 213 242 195 154 213 236 217 201 210 214 208 208 211 214 214 213 216 221 214 213 209 205 204 201 195 191 191 188 185 178 170 150 134 135 339 330
47 221 222 206 191 226 242 232 238 292 170 182 157 241 242 183 218 215 210 212 214 214 213 214 217 221 214 215 212 206 206 212 204 206 204 200 190 186 190 179 165 199 307 310
165 217 118 177 287 222 226 189 225 221 49 278 126 303 245 241 232 223 223 227 218 214 212 214 218 220 216 216 214 210 207 209 210 206 205 199 198 199 203 209 225 262 298 298
214 263 227 224 251 170 242 209 190 136 116 236 156 261 274 232 250 216 219 217 216 216 216 218 221 220 221 219 216 213 208 206 212 215 215 219 220 214 209 211 243 270 287 287
233 195 209 194 209 166 226 140 119 146 130 89 294 93 265 15 292 238 229 213 214 220 218 218 222 227 225 221 217 215 210 208 213 219 223 226 222 225 228 240 254 267 272 282
211 235 179 207 130 176 141 80 41 49 55 50 241 155 280 219 257 302 322 203 214 221 221 224 227 229 230 225 219 216 213 211 213 218 224 229 227 231 248 253 254 260 266 275
343 254 300 176 122 46 74 67 347 345 357 221 48 99 237 297 311 283 230 187 210 222 223 225 230 231 232 229 221 215 214 213 211 213 219 228 227 244 262 262 257 258 262 266
172 303 181 195 182 183 184 155 160 213 208 263 55 232 253 273 347 74 105 169 195 216 228 231 236 236 236 233 225 216 213 212 209 208 206 219 222 243 247 255 256 246 246 257
157 268 283 205 147 138 193 170 182 112 11 63 242 290 308 170 47 42 65 114 116 166 206 223 233 241 241 236 228 218 213 210 206 205 203 214 220 232 235 239 231 237 240 243
201 277 233 289 112 44 159 156 80 4 143 236 300 278 241 226 200 119 96 101 100 108 134 167 196 221 233 237 229 216 213 209 204 206 207 214 223 231 241 238 227 229 242 253
135 131 282 123 196 180 133 155 55 116 135 171 201 262 217 236 167 183 187 140 123 120 122 134 161 187 208 215 217 215 211 207 206 208 210 215 218 221 221 220 221 232 238 278
204 149 193 207 300 240 179 185 143 128 212 175 154 267 359 251 194 178 174 165 156 148 138 132 141 168 194 200 203 207 206 204 203 204 206 207 213 206 204 210 215 235 279 291
183 225 81 337 355 356 203 165 107 103 85 188 141 261 63 92 144 178 172 172 162 153 146 147 161 174 185 190 192 195 197 197 194 193 194 196 194 192 204 214 241 271 296 318
192 162 169 213 208 164 182 186 164 132 122 175 219 264 272 180 178 176 178 172 165 159 154 154 154 158 166 172 179 182 183 185 181 180 182 183 183 193 208 246 290 311 321 325
111 219 190 225 214 179 194 179 170 182 193 169 233 222 239 216 193 187 179 171 170 165 161 162 162 157 160 162 164 168 168 167 168 171 174 177 182 201 244 283 308 316 323 327
355 282 206 240 185 202 237 206 185 202 134 265 171 261 222 181 161 168 180 180 178 173 170 165 161 158 159 159 159 159 158 160 165 168 171 176 193 221 251 298 313 326 333 340
31 354 72 248 186 120 326 212 195 189 198 157 189 227 162 181 174 180 184 187 184 178 175 169 166 163 160 157 158 159 158 160 165 170 174 179 189 231 286 314 328 327 332 341
271 35 352 210 64 238 235 201 172 196 208 204 239 196 193 209 208 206 200 191 184 180 175 171 166 162 160 159 161 162 164 166 171 173 174 182 221 285 308 316 312 321 340 347
185 120 291 163 212 290 283 196 170 166 256 193 227 154 185 160 164 186 206 204 194 187 178 172 169 166 164 166 168 170 169 173 174 177 183 206 264 293 302 302 309 324 344 350
149 125 155 136 234 221 223 233 180 126 277 227 206 176 156 146 158 232 196 196 191 184 180 175 173 172 174 173 177 179 176 175 178 185 199 226 282 298 296 297 320 342 351 355
130 152 196 160 234 288 253 216 159 130 233 278 217 197 166 193 204 199 188 187 188 182 178 179 178 178 179 180 181 181 181 181 185 192 204 266 299 299 298 306 329 340 345 356
186 167 193 105 159 263 210 135 169 211 225 250 210 212 200 206 180 177 182 179 181 178 177 180 178 179 181 184 184 185 184 184 187 193 239 289 301 307 308 318 320 327 333 342
260 211 226 188 210 229 213 244 213 219 262 257 229 211 208 198 179 178 178 180 181 179 178 180 182 180 183 185 187 189 188 190 195 213 255 268 280 290 290 292 305 311 313 316
241 37 287 49 245 255 263 262 271 241 248 258 239 226 210 205 189 181 180 180 179 182 182 182 183 184 184 185 186 197 199 195 206 226 241 251 268 274 270 275 290 300 297 301
283 344 328 299 313 331 286 281 338 303 261 240 239 230 217 207 194 190 184 183 184 183 184 185 187 188 188 186 190 195 199 203 214 226 233 246 262 267 271 277 288 293 291 297
224 282 199 278 297 326 303 315 326 288 259 263 246 217 213 212 203 192 189 189 187 185 184 186 189 191 190 191 193 194 199 209 225 231 233 243 254 259 267 277 286 286 288 297